Stations météo

réclame
Mon MeteoGroup
Rimini, Italie (16149): Température de l'air & dewpoint: 18.05.2019 03:00:00 - 24.05.2019 03:00:00 (CEST)Rimini, Italie (16149): Vitesse du vent: 18.05.2019 03:00:00 - 24.05.2019 03:00:00 (CEST)Rimini, Italie (16149): Direction du vent: 18.05.2019 03:00:00 - 24.05.2019 03:00:00 (CEST)Rimini, Italie (16149): reduced air pressure: 18.05.2019 03:00:00 - 24.05.2019 03:00:00 (CEST)Rimini, Italie (16149): visibility: 18.05.2019 03:00:00 - 24.05.2019 03:00:00 (CEST)Rimini, Italie (16149): Quantités de précipitations: 18.05.2019 03:00:00 - 24.05.2019 03:00:00 (CEST)
Date & Time tt [°C] td [°C] ff [km/h] ff [knt] dd ppp [hPa] vv [km] rr [mm]
24.05.2019 03:00:00 13,0 12,0 4 2 S - 10 -
24.05.2019 02:00:00 13,7 12,1 4 2 S 1014,2 10 -
24.05.2019 01:00:00 13,0 12,0 5 3 SSW - 10 -
24.05.2019 00:00:00 14,0 13,0 4 2 - - 10 -
23.05.2019 23:00:00 15,5 14,1 2 1 SSE 1014,5 10 0,0
23.05.2019 22:00:00 17,0 15,0 4 2 ESE - 10 -
23.05.2019 21:00:00 17,0 15,0 9 5 E - 10 -
23.05.2019 20:00:00 18,4 14,8 11 6 E 1014,2 10 -
23.05.2019 19:00:00 20,0 15,0 15 8 E - 10 -
23.05.2019 18:00:00 21,0 14,0 9 5 NE - 10 -
23.05.2019 17:00:00 21,7 12,3 13 7 W 1014,6 10 0,0
23.05.2019 16:00:00 21,0 12,0 18 10 SSW - 10 -
23.05.2019 15:00:00 20,0 13,0 11 6 NNE - 10 -
23.05.2019 14:00:00 19,3 14,9 16 9 N 1015,9 10 -
23.05.2019 13:00:00 20,0 15,0 16 9 N - 10 -
23.05.2019 12:00:00 19,0 15,0 15 8 N - 10 -
23.05.2019 11:00:00 19,0 14,9 13 7 N 1016,5 10 0,0
23.05.2019 10:00:00 20,0 14,0 8 4 WSW - 10 -
23.05.2019 09:00:00 19,0 13,0 13 7 W - 10 -
23.05.2019 08:00:00 17,3 13,2 9 5 WSW 1016,3 10 -
23.05.2019 07:00:00 15,0 14,0 5 3 SSW - 10 -
23.05.2019 06:00:00 14,0 13,0 4 2 S - 10 -
23.05.2019 05:00:00 13,6 12,5 2 1 - 1015,5 10 0,0
23.05.2019 04:00:00 13,0 12,0 2 1 - - 10 -
23.05.2019 03:00:00 13,0 12,0 4 2 SSW - 10 -
23.05.2019 02:00:00 13,6 12,6 4 2 - 1015,5 10 -
23.05.2019 01:00:00 15,0 13,0 4 2 S - 10 -
23.05.2019 00:00:00 15,0 14,0 5 3 S - 10 -
22.05.2019 23:00:00 16,0 14,0 5 3 - 1015,2 10 0,0
22.05.2019 22:00:00 18,0 13,0 8 4 NE - 10 -
22.05.2019 21:00:00 19,0 12,0 8 4 ESE - 10 -
22.05.2019 20:00:00 19,3 11,7 5 3 ESE 1014,1 10 -
22.05.2019 19:00:00 19,0 11,0 9 5 E - 10 -
22.05.2019 18:00:00 20,0 12,0 13 7 E - 10 -
22.05.2019 17:00:00 18,8 12,8 4 2 - 1014,5 10 0,0
22.05.2019 16:00:00 19,0 13,0 11 6 E - 10 -
22.05.2019 15:00:00 20,0 13,0 13 7 ENE - 10 -
22.05.2019 14:00:00 19,5 13,3 11 6 NE 1015,2 10 -
22.05.2019 13:00:00 19,0 12,0 11 6 NNE - 10 -
22.05.2019 12:00:00 20,0 12,0 11 6 NNE - 10 -
22.05.2019 11:00:00 20,8 11,9 9 5 WNW 1014,5 10 0,0
22.05.2019 10:00:00 20,0 12,0 13 7 S - 10 -
22.05.2019 09:00:00 19,0 11,0 16 9 SSW - 10 -
22.05.2019 08:00:00 17,7 11,0 15 8 S 1014,1 10 -
22.05.2019 07:00:00 16,0 11,0 11 6 S - 10 -
22.05.2019 06:00:00 15,0 11,0 13 7 S - 10 -
22.05.2019 05:00:00 16,0 10,5 18 10 S 1013,3 10 0,0
22.05.2019 04:00:00 16,0 11,0 9 5 S - 10 -
22.05.2019 03:00:00 15,0 11,0 8 4 S - 10 -
22.05.2019 02:00:00 14,7 11,0 9 5 S 1013,3 10 -
22.05.2019 01:00:00 16,0 11,0 11 6 S - 10 -
22.05.2019 00:00:00 17,0 12,0 13 7 SSW - 10 -
21.05.2019 23:00:00 17,1 11,9 11 6 S 1012,7 10 0,0
21.05.2019 22:00:00 18,0 12,0 9 5 S - 10 -
21.05.2019 21:00:00 19,0 12,0 22 12 S - 10 -
21.05.2019 20:00:00 20,6 12,3 8 4 ESE 1010,7 10 -
21.05.2019 19:00:00 23,0 10,0 8 4 WSW - 10 -
21.05.2019 18:00:00 23,0 10,0 18 10 W - 10 -
21.05.2019 17:00:00 23,5 10,4 16 9 W 1010,2 10 0,0
21.05.2019 16:00:00 23,0 12,0 16 9 SW - 10 -
21.05.2019 15:00:00 23,0 11,0 21 11 SW - 10 -
21.05.2019 14:00:00 22,1 12,8 8 4 WNW 1009,6 10 -
21.05.2019 13:00:00 21,0 13,0 11 6 SSE - 10 -
21.05.2019 12:00:00 20,0 13,0 11 6 SSE - 10 -
21.05.2019 11:00:00 21,2 11,4 4 2 - 1009,2 10 0,0
21.05.2019 10:00:00 19,0 12,0 13 7 S - 10 -
21.05.2019 09:00:00 17,0 12,0 8 4 S - 10 -
21.05.2019 08:00:00 15,6 11,3 5 3 S 1008,3 10 -
21.05.2019 07:00:00 15,0 10,0 8 4 S - 10 -
21.05.2019 06:00:00 15,0 10,0 8 4 SSW - 10 -
21.05.2019 05:00:00 14,7 9,5 11 6 S 1007,8 10 0,0
21.05.2019 04:00:00 15,0 9,0 16 9 SSW - 10 -
21.05.2019 03:00:00 15,0 9,0 16 9 SSW - 10 -
21.05.2019 02:00:00 14,8 9,1 13 7 SSW 1008,5 10 -
21.05.2019 01:00:00 15,0 9,0 13 7 S - 10 -
21.05.2019 00:00:00 14,0 9,0 9 5 S - 10 -
20.05.2019 23:00:00 15,3 9,1 9 5 S 1008,2 10 0,0
20.05.2019 22:00:00 15,0 10,0 9 5 S - 10 -
20.05.2019 21:00:00 15,0 10,0 11 6 S - 10 -
20.05.2019 20:00:00 16,5 9,6 18 10 S 1007,2 10 -
20.05.2019 19:00:00 17,0 9,0 15 8 SSW - 10 -
20.05.2019 18:00:00 19,0 10,0 18 10 SSW - 10 -
20.05.2019 17:00:00 20,6 9,2 29 16 S 1006,3 10 0,0
20.05.2019 16:00:00 21,0 9,0 21 11 S - 10 -
20.05.2019 15:00:00 21,0 11,0 21 11 S - 10 -
20.05.2019 14:00:00 20,0 10,3 16 9 S 1006,5 10 -
20.05.2019 13:00:00 20,0 10,0 18 10 S - 10 -
20.05.2019 12:00:00 19,0 10,0 16 9 S - 10 -
20.05.2019 11:00:00 19,4 9,2 13 7 S 1006,2 10 0,0
20.05.2019 10:00:00 17,0 10,0 5 3 S - 10 -
20.05.2019 09:00:00 17,0 11,0 4 2 - - 10 -
20.05.2019 08:00:00 14,6 10,2 5 3 S 1005,3 10 -
20.05.2019 07:00:00 12,0 10,0 5 3 S - 10 -
20.05.2019 06:00:00 12,0 10,0 5 3 S - 10 -
20.05.2019 05:00:00 11,8 10,1 8 4 S 1004,8 10 0,0
20.05.2019 04:00:00 12,0 10,0 8 4 S - 10 -
20.05.2019 03:00:00 12,0 11,0 4 2 S - 10 -
20.05.2019 02:00:00 12,3 11,3 5 3 S 1005,0 10 -
20.05.2019 01:00:00 13,0 12,0 5 3 S - 10 -
20.05.2019 00:00:00 13,0 12,0 2 1 S - 7 -
19.05.2019 23:00:00 13,6 12,8 4 2 SSE 1005,3 10 0,0
19.05.2019 22:00:00 14,0 13,0 2 1 - - 10 -
19.05.2019 21:00:00 14,0 13,0 4 2 SSE - 10 -
19.05.2019 20:00:00 13,9 13,0 8 4 SSW 1004,5 10 -
19.05.2019 19:00:00 15,0 14,0 8 4 SW - 10 -
19.05.2019 18:00:00 14,0 13,0 5 3 S - 10 -
19.05.2019 17:00:00 15,2 12,1 11 6 SE 1004,2 10 0,0
19.05.2019 16:00:00 14,0 12,0 9 5 ESE - 6 -
19.05.2019 15:00:00 16,0 14,0 13 7 NNE - 8 -
19.05.2019 14:00:00 16,4 13,8 13 7 NNE 1003,4 10 -
19.05.2019 13:00:00 16,0 14,0 11 6 NNE - 10 -
19.05.2019 12:00:00 16,0 14,0 9 5 NE - 8 -
19.05.2019 11:00:00 16,4 13,7 2 1 - 1004,1 5 0,0
19.05.2019 10:00:00 15,0 13,0 5 3 NE - 5 -
19.05.2019 09:00:00 14,0 13,0 8 4 N - 5 -
19.05.2019 08:00:00 13,8 13,1 4 2 W 1004,1 4,0 -
19.05.2019 07:00:00 13,0 12,0 5 3 SW - 3,8 -
19.05.2019 06:00:00 13,0 12,0 2 1 - - 0,9 -
19.05.2019 05:00:00 13,3 12,5 2 1 - 1004,5 7 0,0
19.05.2019 04:00:00 13,0 12,0 5 3 SW - 10 -
19.05.2019 03:00:00 14,0 13,0 5 3 - - 10 -
19.05.2019 02:00:00 13,7 12,8 2 1 - 1005,2 6 -
19.05.2019 01:00:00 14,0 13,0 2 1 - - 10 -
19.05.2019 00:00:00 14,0 13,0 9 5 ESE - 10 -
18.05.2019 23:00:00 14,4 13,2 8 4 SSE 1005,9 10 0,0
18.05.2019 22:00:00 15,0 13,0 9 5 SE - 10 -
18.05.2019 21:00:00 15,0 13,0 5 3 SSE - 10 -
18.05.2019 20:00:00 15,0 13,3 8 4 ESE 1005,2 10 -
18.05.2019 19:00:00 15,0 13,0 16 9 ESE - 10 -
18.05.2019 18:00:00 16,0 14,0 15 8 E - 6 -
18.05.2019 17:00:00 16,1 14,1 16 9 E 1004,3 10 0,0
18.05.2019 16:00:00 18,0 15,0 18 10 E - 10 -
18.05.2019 15:00:00 17,0 14,0 16 9 E - 10 -
18.05.2019 14:00:00 18,1 14,7 13 7 E 1004,7 10 -
18.05.2019 13:00:00 16,0 14,0 11 6 E - 8 -
18.05.2019 12:00:00 16,0 14,0 8 4 NE - 8 -
18.05.2019 11:00:00 16,3 14,0 2 1 - 1005,4 8 0,0
18.05.2019 10:00:00 16,0 14,0 15 8 E - 10 -
18.05.2019 09:00:00 16,0 14,0 11 6 E - 10 -
18.05.2019 08:00:00 14,8 13,1 9 5 SE 1005,2 10 -
18.05.2019 07:00:00 15,0 13,0 5 3 - - 10 -
18.05.2019 06:00:00 15,0 12,0 9 5 E - 10 -
18.05.2019 05:00:00 14,6 12,9 11 6 E 1006,0 10 0,0
18.05.2019 04:00:00 14,0 13,0 9 5 E - 10 -
18.05.2019 03:00:00 14,0 12,0 5 3 SE - 10 -

tt = Température de l'air
td = dewpoint
ff = Vitesse du vent
dd = Direction du vent
ppp = reduced air pressure
vv = visibility
rr = Quantités de précipitations

stations d'obs. à proximité